Flag for Dominican Republic Weather past 2 weeks in Santiago de los Caballeros, Dominican Republic

Now
75 °F

Rain. Mostly cloudy.


Feels Like: 74 °F
Forecast: N/A
Wind: 20 mph from Southeast

Location: Santiago

Current Time: Aug 28, 2015 at 7:09:24 PM

Latest Report: Aug 28, 2015 at 6:00 PM


Visibility: 3 mi

Pressure: 29.86 "Hg

Humidity: 94%

Dew point: 73 °F

Location of Santiago de los CaballerosLocation

Historic Weather in Santiago de los Caballeros — Graph

°F

Santiago de los Caballeros temperature yesterday

Maximum temperature yesterday: 97 °F (at 2:00 PM)
Minimum temperature yesterday: 75 °F (at 6:00 AM)
Average temperature yesterday: 85 °F

Past Weeks' High & Low Weather Summary

 TemperatureHumidityPressure
High97 °F (Aug 20, 2:00 PM)94% (Aug 16, 2:00 AM)30.22 "Hg (Aug 16, 2:00 AM)
Low73 °F (Aug 16, 7:00 AM)32% (Aug 16, 3:00 PM)29.83 "Hg (Aug 22, 4:00 PM)
Average84 °F70%29.95 "Hg
* Reported Aug 13 5:00 PM — Aug 28 5:00 PM, Santiago de los Caballeros, Weather by CustomWeather, © 2015

Note: Actual official high and low records may vary slightly from our data, if they occured in-between our weather recording intervals... More about our weather records

Advertising

Santiago de los Caballeros weather history for previous 24 hours

 ConditionsComfort  
Time TempWeatherWind HumidityBarometerVisibility
5:00 PM
Fri, Aug 28
75 °FLight rain. Passing clouds.23 mph94%29.86 "Hg3 mi
4:00 PM77 °FLight rain. Partly sunny.18 mph94%29.86 "Hg4 mi
3:00 PM84 °FScattered showers. Passing clouds.20 mph74%29.86 "Hg4 mi
2:00 PM82 °FPartly sunny.21 mph84%29.89 "HgN/A
1:00 PM79 °FLight rain. Broken clouds.16 mph94%29.92 "Hg3 mi
12:00 PM81 °FLight rain. Partly sunny.20 mph84%29.92 "Hg3 mi
11:00 AM84 °FPartly sunny.13 mph74%29.92 "HgN/A
10:13 AM82 °FPartly sunny.8 mph79%29.92 "HgN/A
9:00 AM81 °FPartly sunny.5 mph84%29.92 "HgN/A
8:00 AM79 °FRain. Partly sunny.5 mph89%29.92 "Hg5 mi
7:00 AM77 °FHeavy rain. Partly sunny.3 mph94%29.92 "Hg1 mi
6:00 AM77 °FPassing clouds.No wind94%29.89 "HgN/A
5:00 AM77 °FPassing clouds.No wind94%29.92 "HgN/A
4:00 AM77 °FPassing clouds.No wind94%29.92 "HgN/A
3:00 AM77 °FPassing clouds.No wind94%29.92 "HgN/A
2:00 AM79 °FPartly cloudy.3 mph89%29.92 "HgN/A
1:00 AM79 °FPassing clouds.7 mph89%29.95 "HgN/A
12:00 AM81 °FPassing clouds.3 mph79%29.98 "HgN/A
11:00 PM
Thu, Aug 27
82 °FPassing clouds.5 mph74%29.98 "HgN/A
10:00 PM82 °FPassing clouds.7 mph74%29.98 "HgN/A
9:00 PM82 °FWarm.9 mph74%29.95 "HgN/A
8:00 PM84 °FThunderstorms. Partly cloudy.9 mph70%29.92 "HgN/A
7:00 PM86 °FScattered clouds.13 mph66%29.92 "HgN/A
Weather by CustomWeather, © 2015

See weather overviewHow to use our weather pages